User: anonymous   Login
Location: Chiroubles
(46.1812°N, 4.6660°E)
Time: 00:49:21
(UTC+00:00)
Language:

Meteor 1-27 Rocket - Orbit

View from above orbital plane
View from above orbital plane
View from above satellite
View from above satellite

Ground track
Ground track

The orbit data is extracted from the following two-line orbital elements,

1  9904U 77024B   20292.80498118 +.00000071 +00000-0 +34124-4 0  9992
2  9904 081.2657 031.3244 0054885 132.8220 227.7582 14.06894735234063
Epoch (UTC): 18 October 2020 19:19:10
Eccentricity: 0.0054885
inclination: 81.2657°
perigee height: 830 km
apogee height: 910 km
right ascension of ascending node: 31.3244°
argument of perigee: 132.8220°
revolutions per day: 14.06894735
mean anomaly at epoch: 227.7582°
orbit number at epoch: 23406

The dashed part of the orbit path shows where the satellite is in the earth's shadow,  

DLR